• In Russia
  • List of Countries
  • For 7 days
  • Water Temperature
  • Satellite Maps
  • Weather Map
  • Weather Widgets
  • user-avatar
    Login

    Hourly Weather Innsbruck

    Today, 21 January, Monday

    Time Temperature Precipitation Wind Pressure Humidity
    00:00 -13°C° 0 mm 1 mps 588 mmHg 85%
    01:00 -13°C° 0 mm 1 mps 588 mmHg 85%
    02:00 -13°C° 0 mm 1 mps 588 mmHg 85%
    03:00 -14°C° 0 mm 1 mps 588 mmHg 85%
    04:00 -14°C° 0 mm 1 mps 588 mmHg 85%
    05:00 -14°C° 0 mm 1 mps 588 mmHg 85%
    06:00 -14°C° 0 mm 1 mps 588 mmHg 85%
    07:00 -14°C° 0 mm 1 mps 588 mmHg 85%
    08:00 -13°C° 0 mm 1 mps 589 mmHg 85%
    09:00 -11°C° 0 mm 1 mps 589 mmHg 85%
    10:00 -10°C° 0 mm 1 mps 590 mmHg 85%
    11:00 -9°C° 0 mm 1 mps 590 mmHg 85%
    12:00 -8°C° 0 mm 1 mps 591 mmHg 85%
    13:00 -7°C° 0 mm 1 mps 591 mmHg 85%
    14:00 -7°C° 0 mm 1 mps 591 mmHg 87%
    15:00 -7°C° 0 mm 1 mps 590 mmHg 89%
    16:00 -8°C° 0 mm 1 mps 590 mmHg 91%
    17:00 -9°C° 0 mm 1 mps 589 mmHg 93%
    18:00 -11°C° 0 mm 1 mps 589 mmHg 94%
    19:00 -13°C° 0 mm 0 mps 588 mmHg 95%
    20:00 -13°C° 0 mm 1 mps 588 mmHg 94%
    21:00 -14°C° 0 mm 1 mps 587 mmHg 92%
    22:00 -15°C° 0 mm 1 mps 587 mmHg 90%
    23:00 -15°C° 0 mm 1 mps 587 mmHg 89%

    Tomorrow, 22 January, Tuesday

    Time Temperature Precipitation Wind Pressure Humidity
    00:00 -16°C° 0 mm 1 mps 587 mmHg 88%
    01:00 -16°C° 0 mm 1 mps 586 mmHg 87%
    02:00 -16°C° 0 mm 1 mps 586 mmHg 86%
    03:00 -16°C° 0 mm 1 mps 585 mmHg 84%
    04:00 -18°C° 0 mm 2 mps 585 mmHg 83%
    05:00 -18°C° 0 mm 2 mps 584 mmHg 81%
    06:00 -18°C° 0 mm 2 mps 584 mmHg 79%
    07:00 -16°C° 0 mm 1 mps 584 mmHg 77%
    08:00 -14°C° 0 mm 1 mps 584 mmHg 77%
    09:00 -12°C° 0 mm 1 mps 585 mmHg 77%
    10:00 -11°C° 0 mm 1 mps 585 mmHg 77%
    11:00 -9°C° 0 mm 1 mps 585 mmHg 75%
    12:00 -8°C° 0 mm 1 mps 585 mmHg 72%
    13:00 -6°C° 0 mm 1 mps 585 mmHg 69%
    14:00 -7°C° 0 mm 1 mps 584 mmHg 73%
    15:00 -8°C° 0 mm 1 mps 583 mmHg 76%
    16:00 -8°C° 0 mm 1 mps 582 mmHg 80%
    17:00 -10°C° 0 mm 1 mps 581 mmHg 77%
    18:00 -14°C° 0 mm 2 mps 580 mmHg 74%
    19:00 -16°C° 0 mm 2 mps 579 mmHg 71%
    20:00 -16°C° 0 mm 2 mps 579 mmHg 68%
    21:00 -18°C° 0 mm 3 mps 578 mmHg 66%
    22:00 -18°C° 0 mm 3 mps 578 mmHg 63%
    23:00 -18°C° 0 mm 3 mps 577 mmHg 63%

    Day after tomorrow, 23 January, Wednesday

    Time Temperature Precipitation Wind Pressure Humidity
    00:00 -19°C° 0 mm 3 mps 577 mmHg 63%
    01:00 -18°C° 0 mm 2 mps 576 mmHg 62%
    02:00 -18°C° 0 mm 2 mps 576 mmHg 63%
    03:00 -18°C° 0 mm 2 mps 576 mmHg 63%
    04:00 -18°C° 0 mm 2 mps 575 mmHg 63%
    05:00 -18°C° 0 mm 2 mps 575 mmHg 63%
    06:00 -19°C° 0 mm 2 mps 575 mmHg 63%
    07:00 -19°C° 0 mm 2 mps 575 mmHg 63%
    08:00 -17°C° 0 mm 2 mps 576 mmHg 66%
    09:00 -15°C° 0 mm 2 mps 577 mmHg 69%
    10:00 -12°C° 0 mm 1 mps 578 mmHg 72%
    11:00 -10°C° 0 mm 1 mps 578 mmHg 69%
    12:00 -9°C° 0 mm 1 mps 579 mmHg 65%
    13:00 -8°C° 0 mm 1 mps 579 mmHg 62%
    14:00 -8°C° 0 mm 1 mps 579 mmHg 69%
    15:00 -9°C° 0 mm 1 mps 579 mmHg 76%
    16:00 -10°C° 0 mm 1 mps 578 mmHg 83%
    17:00 -12°C° 0 mm 1 mps 578 mmHg 85%
    18:00 -14°C° 0 mm 1 mps 578 mmHg 86%
    19:00 -15°C° 0 mm 1 mps 577 mmHg 88%
    20:00 -16°C° 0 mm 1 mps 578 mmHg 85%
    21:00 -16°C° 0 mm 1 mps 578 mmHg 83%
    22:00 -16°C° 0 mm 1 mps 578 mmHg 81%
    23:00 -16°C° 0 mm 1 mps 579 mmHg 80%

    24 January, Thursday

    Time Temperature Precipitation Wind Pressure Humidity
    00:00 -16°C° 0 mm 1 mps 579 mmHg 79%
    01:00 -16°C° 0 mm 1 mps 579 mmHg 79%
    02:00 -16°C° 0 mm 1 mps 579 mmHg 80%
    03:00 -16°C° 0 mm 1 mps 580 mmHg 81%
    04:00 -15°C° 0 mm 1 mps 580 mmHg 82%
    05:00 -15°C° 0 mm 1 mps 581 mmHg 84%
    06:00 -15°C° 0 mm 1 mps 581 mmHg 85%
    07:00 -16°C° 0 mm 1 mps 581 mmHg 87%
    08:00 -14°C° 0 mm 1 mps 582 mmHg 87%
    09:00 -13°C° 0 mm 1 mps 584 mmHg 88%
    10:00 -11°C° 0 mm 1 mps 585 mmHg 88%
    11:00 -10°C° 0 mm 1 mps 585 mmHg 88%
    12:00 -10°C° 0 mm 2 mps 585 mmHg 88%
    13:00 -9°C° 0 mm 2 mps 586 mmHg 88%
    14:00 -10°C° 0 mm 2 mps 586 mmHg 89%
    15:00 -10°C° 0 mm 2 mps 586 mmHg 91%
    16:00 -12°C° 0 mm 2 mps 586 mmHg 92%
    17:00 -13°C° 0 mm 2 mps 585 mmHg 93%
    18:00 -13°C° 0 mm 1 mps 585 mmHg 94%
    19:00 -15°C° 0 mm 1 mps 585 mmHg 95%
    20:00 -15°C° 0 mm 1 mps 585 mmHg 94%
    21:00 -16°C° 0 mm 1 mps 585 mmHg 93%
    22:00 -18°C° 0 mm 2 mps 585 mmHg 92%
    23:00 -18°C° 0 mm 2 mps 586 mmHg 92%

    25 January, Friday

    Time Temperature Precipitation Wind Pressure Humidity
    00:00 -16°C° 0 mm 1 mps 586 mmHg 92%
    01:00 -16°C° 0 mm 1 mps 586 mmHg 92%
    02:00 -18°C° 0 mm 2 mps 586 mmHg 91%
    03:00 -18°C° 0 mm 2 mps 586 mmHg 91%
    04:00 -18°C° 0 mm 2 mps 586 mmHg 91%
    05:00 -18°C° 0 mm 2 mps 586 mmHg 91%
    06:00 -18°C° 0 mm 2 mps 586 mmHg 90%
    07:00 -18°C° 0 mm 2 mps 587 mmHg 90%
    08:00 -16°C° 0 mm 2 mps 588 mmHg 89%
    09:00 -13°C° 0 mm 1 mps 589 mmHg 89%
    10:00 -11°C° 0 mm 1 mps 590 mmHg 88%
    11:00 -10°C° 0 mm 1 mps 590 mmHg 88%
    12:00 -10°C° 0 mm 2 mps 590 mmHg 88%
    13:00 -9°C° 0 mm 2 mps 590 mmHg 88%
    14:00 -9°C° 0 mm 2 mps 590 mmHg 89%
    15:00 -8°C° 0 mm 1 mps 590 mmHg 89%
    16:00 -9°C° 0 mm 1 mps 589 mmHg 90%
    17:00 -13°C° 0 mm 2 mps 589 mmHg 89%
    18:00 -14°C° 0 mm 2 mps 588 mmHg 89%
    19:00 -16°C° 0 mm 2 mps 588 mmHg 88%
    20:00 -16°C° 0 mm 2 mps 588 mmHg 83%
    21:00 -16°C° 0 mm 2 mps 588 mmHg 78%
    22:00 -16°C° 0 mm 2 mps 588 mmHg 73%
    23:00 -16°C° 0 mm 2 mps 588 mmHg 70%

    26 January, Saturday

    Time Temperature Precipitation Wind Pressure Humidity
    00:00 -16°C° 0 mm 2 mps 588 mmHg 67%
    01:00 -16°C° 0 mm 2 mps 588 mmHg 64%
    02:00 -15°C° 0 mm 2 mps 588 mmHg 65%
    03:00 -14°C° 0 mm 2 mps 588 mmHg 65%
    04:00 -13°C° 0 mm 2 mps 589 mmHg 66%
    05:00 -13°C° 0 mm 2 mps 589 mmHg 69%
    06:00 -13°C° 0 mm 2 mps 588 mmHg 72%
    07:00 -13°C° 0 mm 2 mps 588 mmHg 76%
    08:00 -9°C° 0 mm 1 mps 589 mmHg 79%
    09:00 -7°C° 0 mm 1 mps 589 mmHg 83%
    10:00 -6°C° 0 mm 1 mps 590 mmHg 86%
    11:00 -4°C° 0 mm 1 mps 590 mmHg 88%
    12:00 -4°C° 0 mm 0 mps 589 mmHg 91%
    13:00 -3°C° 0 mm 0 mps 589 mmHg 93%
    14:00 -3°C° 0 mm 0 mps 589 mmHg 92%
    15:00 -3°C° 0 mm 0 mps 588 mmHg 92%
    16:00 -3°C° 0 mm 0 mps 588 mmHg 91%
    17:00 -4°C° 0 mm 1 mps 587 mmHg 90%
    18:00 -7°C° 0 mm 2 mps 586 mmHg 88%
    19:00 -8°C° 0 mm 2 mps 585 mmHg 86%
    20:00 -9°C° 0 mm 2 mps 585 mmHg 85%
    21:00 -10°C° 0 mm 3 mps 584 mmHg 83%
    22:00 -12°C° 0 mm 3 mps 584 mmHg 82%
    23:00 -12°C° 0 mm 3 mps 583 mmHg 81%
    Show more